SL-14 R/B, 16144

Orbit data source: Space-Track

SL-14 R/B, 16144 is space debris in LEO originally from a launch on Wed, 09 Oct 1985 UTC launched from the Plesetsk Missile And Space Complex (PKMTR). Debris objects in space refer to the collection of defunct objects orbiting the Earth. Examples of debris include non-operational satellites, rocket bodies, and fragments generated from explosions, collisions, or faulty payload assembly.

Loading next visibility...
Identifier
16144, 1985-094G
Orbit
LEO
Country
Flag of CISCIS
Related business
Manufacturer
Yuzhnoe
Mission
Spacecraft
Bus & Motor
S5M, Unknown motor
Mass
1,600 kg wet, 1,600 kg dry
Launch date (UTC)
1985-10-09 (40 years ago)
Launch vehicle
Unknown
Launch site
Plesetsk Missile And Space Complex (PKMTR)
Object type
Payload
Rocket body
Debris
Shape & HBR
Unknown
Radar Cross Section
Large (>1 m²)

Expand to show TLE details & history
Last TLE update: 9 hours ago

TLE from 9 hours ago
0 SL-14 R/B
1 16144U 85094G   26037.19536328  .00000025  00000-0  90722-4 0  9998
2 16144  82.6111 135.6602 0036583  30.5116 351.8688 12.54892610847322
Epoch: 2026-02-06T04:41Z
TLE epoch observation values (Epoch: 2026-02-06T04:41:19.387Z)
Latitude
22.13878°
Longitude
-67.99793°
Altitude
1,418.303 km
Speed
7.166 km/s
True Right ascension
09h 14m 40s
True Declination
22° 01' 45"
Sunlit
Object was in full shadow at epoch
Visualization orbit readout
Latitude
Unknown
Longitude
Unknown
Altitude
Unknown
Speed
Unknown
Apparent Right ascension
Unknown
Apparent Declination
Unknown
Sunlit
N/A
Visualization observer readout
Local Sidereal Time
15:22:43
Azimuth
Unknown
Elevation
Unknown
Doppler factor
Unknown
Orbital elements
Apogee altitude
1,470.033 km
Perigee altitude
1,412.821 km
Semi-major axis
7,819.564 km
Eccentricity
0.00366
Inclination
82.6111°
RAAN
135.6602°
Arg. of periapsis
30.5116°
True anomaly
351.80924°
Mean anomaly
351.8688°
Eccentric anomaly
351.83905°
Mean motion
3.13884 °/min
Orbital period
114.69 mins
BSTAR
0.000090722
Loading maneuver chart data...
Computing Atmospheric mass density...
Loading historical data...
Loading historical data...
Loading historical data...
Loading historical data...
Loading historical data...
Loading historical data...
Loading historical data...

Documentation

Showing up to 5 results
|